When you browse on this site, cookies collect data to enhance your experience and personalize the content and advertising you see.
Visit our Privacy Policy to learn more. By continuing to use the site, you agree to this use of cookies and data.
  • In United Kingdom
  • List of Countries
  • For 7 days
  • Water Temperature
  • Satellite Maps
  • Weather Map
  • Weather Widgets
  • user-avatar
    Login

    Hourly Weather Naru

    Today, 22 April, Monday

    Time Temperature Precipitation Wind Pressure Humidity
    00:00 +31°C° 0.1 mm 1 mps 738 mmHg 66%
    01:00 +27°C° 0 mm 0 mps 738 mmHg 83%
    02:00 +27°C° 0 mm 0 mps 738 mmHg 83%
    03:00 +26°C° 0 mm 0 mps 738 mmHg 83%
    04:00 +26°C° 0 mm 0 mps 738 mmHg 83%
    05:00 +27°C° 0.5 mm 0 mps 738 mmHg 81%
    06:00 +28°C° 0.5 mm 0 mps 739 mmHg 79%
    07:00 +29°C° 0 mm 0 mps 740 mmHg 76%
    08:00 +31°C° 0.1 mm 0 mps 740 mmHg 67%
    09:00 +35°C° 0.1 mm 1 mps 740 mmHg 58%
    10:00 +39°C° 0.1 mm 1 mps 740 mmHg 49%
    11:00 +39°C° 0 mm 1 mps 740 mmHg 46%
    12:00 +40°C° 0 mm 1 mps 739 mmHg 42%
    13:00 +41°C° 0 mm 1 mps 739 mmHg 39%
    14:00 +40°C° 0 mm 1 mps 738 mmHg 38%
    15:00 +40°C° 0 mm 1 mps 738 mmHg 38%
    16:00 +40°C° 0 mm 1 mps 737 mmHg 37%
    17:00 +39°C° 0 mm 1 mps 738 mmHg 42%
    18:00 +36°C° 0 mm 1 mps 738 mmHg 47%
    19:00 +34°C° 0 mm 1 mps 738 mmHg 51%
    20:00 +32°C° 0 mm 0 mps 738 mmHg 53%
    21:00 +31°C° 0 mm 0 mps 739 mmHg 55%
    22:00 +30°C° 0 mm 0 mps 739 mmHg 57%
    23:00 +29°C° 0.6 mm 0 mps 739 mmHg 67%

    Tomorrow, 23 April, Tuesday

    Time Temperature Precipitation Wind Pressure Humidity
    00:00 +28°C° 0.6 mm 0 mps 739 mmHg 76%
    01:00 +27°C° 0.6 mm 0 mps 739 mmHg 85%
    02:00 +26°C° 0 mm 0 mps 739 mmHg 86%
    03:00 +26°C° 0 mm 0 mps 739 mmHg 86%
    04:00 +26°C° 0 mm 0 mps 739 mmHg 87%
    05:00 +27°C° 0 mm 0 mps 739 mmHg 85%
    06:00 +27°C° 0 mm 0 mps 740 mmHg 82%
    07:00 +28°C° 0 mm 0 mps 740 mmHg 80%
    08:00 +31°C° 0 mm 0 mps 741 mmHg 67%
    09:00 +36°C° 0 mm 1 mps 741 mmHg 54%
    10:00 +40°C° 0 mm 1 mps 741 mmHg 41%
    11:00 +40°C° 0 mm 1 mps 741 mmHg 39%
    12:00 +41°C° 0 mm 1 mps 740 mmHg 37%
    13:00 +41°C° 0 mm 2 mps 740 mmHg 35%
    14:00 +41°C° 0 mm 2 mps 739 mmHg 34%
    15:00 +42°C° 0 mm 1 mps 739 mmHg 34%
    16:00 +42°C° 0 mm 1 mps 738 mmHg 33%
    17:00 +40°C° 0 mm 1 mps 738 mmHg 39%
    18:00 +36°C° 0 mm 1 mps 738 mmHg 44%
    19:00 +32°C° 0 mm 0 mps 739 mmHg 49%
    20:00 +32°C° 0 mm 0 mps 739 mmHg 52%
    21:00 +33°C° 0 mm 1 mps 740 mmHg 55%
    22:00 +32°C° 0 mm 1 mps 740 mmHg 59%
    23:00 +31°C° 0 mm 1 mps 740 mmHg 62%

    Day after tomorrow, 24 April, Wednesday

    Time Temperature Precipitation Wind Pressure Humidity
    00:00 +31°C° 0 mm 1 mps 740 mmHg 66%
    01:00 +30°C° 0 mm 1 mps 739 mmHg 69%
    02:00 +28°C° 0 mm 0 mps 739 mmHg 71%
    03:00 +28°C° 0 mm 0 mps 739 mmHg 72%
    04:00 +27°C° 0 mm 0 mps 739 mmHg 73%
    05:00 +28°C° 0 mm 0 mps 739 mmHg 70%
    06:00 +29°C° 0 mm 0 mps 740 mmHg 67%
    07:00 +30°C° 0 mm 0 mps 740 mmHg 64%
    08:00 +35°C° 0 mm 1 mps 741 mmHg 55%
    09:00 +37°C° 0 mm 1 mps 741 mmHg 46%
    10:00 +41°C° 0 mm 2 mps 741 mmHg 37%
    11:00 +42°C° 0 mm 2 mps 741 mmHg 33%
    12:00 +43°C° 0 mm 2 mps 740 mmHg 29%
    13:00 +46°C° 0 mm 2 mps 739 mmHg 26%
    14:00 +44°C° 0 mm 1 mps 739 mmHg 25%
    15:00 +44°C° 0 mm 1 mps 738 mmHg 24%
    16:00 +44°C° 0 mm 1 mps 737 mmHg 23%
    17:00 +42°C° 0 mm 1 mps 738 mmHg 29%
    18:00 +39°C° 0 mm 1 mps 738 mmHg 35%
    19:00 +36°C° 0 mm 1 mps 738 mmHg 41%
    20:00 +35°C° 0 mm 1 mps 739 mmHg 46%
    21:00 +34°C° 0 mm 1 mps 739 mmHg 51%
    22:00 +33°C° 0 mm 1 mps 739 mmHg 57%
    23:00 +32°C° 0 mm 1 mps 739 mmHg 60%

    25 April, Thursday

    Time Temperature Precipitation Wind Pressure Humidity
    00:00 +31°C° 0 mm 1 mps 739 mmHg 63%
    01:00 +28°C° 0 mm 0 mps 738 mmHg 66%
    02:00 +28°C° 0 mm 0 mps 738 mmHg 66%
    03:00 +28°C° 0 mm 0 mps 738 mmHg 66%
    04:00 +27°C° 0 mm 0 mps 738 mmHg 67%
    05:00 +28°C° 0 mm 0 mps 738 mmHg 63%
    06:00 +29°C° 0 mm 0 mps 739 mmHg 60%
    07:00 +30°C° 0 mm 0 mps 740 mmHg 57%
    08:00 +35°C° 0 mm 1 mps 740 mmHg 49%
    09:00 +38°C° 0 mm 2 mps 740 mmHg 42%
    10:00 +41°C° 0 mm 2 mps 741 mmHg 34%
    11:00 +42°C° 0 mm 2 mps 740 mmHg 32%
    12:00 +43°C° 0 mm 2 mps 739 mmHg 29%
    13:00 +45°C° 0 mm 2 mps 738 mmHg 26%
    14:00 +45°C° 0 mm 2 mps 738 mmHg 28%
    15:00 +43°C° 0 mm 1 mps 737 mmHg 29%
    16:00 +42°C° 0 mm 1 mps 737 mmHg 30%
    17:00 +39°C° 0.2 mm 1 mps 737 mmHg 41%
    18:00 +35°C° 0.2 mm 1 mps 737 mmHg 52%
    19:00 +32°C° 0.2 mm 1 mps 738 mmHg 63%
    20:00 +31°C° 0.5 mm 1 mps 738 mmHg 69%
    21:00 +30°C° 0.5 mm 1 mps 739 mmHg 74%
    22:00 +29°C° 0.5 mm 1 mps 739 mmHg 80%
    23:00 +29°C° 0 mm 1 mps 739 mmHg 80%

    26 April, Friday

    Time Temperature Precipitation Wind Pressure Humidity
    00:00 +28°C° 0 mm 1 mps 739 mmHg 80%
    01:00 +26°C° 0 mm 0 mps 738 mmHg 80%
    02:00 +26°C° 0 mm 0 mps 738 mmHg 80%
    03:00 +26°C° 0 mm 0 mps 738 mmHg 80%
    04:00 +26°C° 0 mm 0 mps 737 mmHg 80%
    05:00 +26°C° 0.5 mm 0 mps 738 mmHg 80%
    06:00 +27°C° 0.5 mm 0 mps 739 mmHg 79%
    07:00 +27°C° 0.5 mm 0 mps 739 mmHg 79%
    08:00 +31°C° 0 mm 1 mps 740 mmHg 72%
    09:00 +32°C° 0 mm 1 mps 740 mmHg 66%
    10:00 +34°C° 0 mm 1 mps 741 mmHg 59%
    11:00 +35°C° 0 mm 1 mps 740 mmHg 56%
    12:00 +36°C° 0 mm 1 mps 739 mmHg 52%
    13:00 +36°C° 0 mm 1 mps 738 mmHg 49%
    14:00 +39°C° 0 mm 1 mps 738 mmHg 44%
    15:00 +40°C° 0 mm 1 mps 737 mmHg 40%
    16:00 +41°C° 0 mm 1 mps 737 mmHg 35%
    17:00 +39°C° 0 mm 1 mps 737 mmHg 40%
    18:00 +36°C° 0 mm 1 mps 738 mmHg 44%
    19:00 +34°C° 0 mm 1 mps 738 mmHg 48%
    20:00 +32°C° 1.3 mm 1 mps 739 mmHg 60%
    21:00 +30°C° 1.3 mm 1 mps 739 mmHg 71%
    22:00 +29°C° 1.3 mm 1 mps 740 mmHg 82%
    23:00 +28°C° 4.4 mm 1 mps 740 mmHg 85%

    27 April, Saturday

    Time Temperature Precipitation Wind Pressure Humidity
    00:00 +27°C° 4.4 mm 1 mps 740 mmHg 88%
    01:00 +27°C° 4.4 mm 1 mps 740 mmHg 91%
    02:00 +27°C° 0.1 mm 1 mps 739 mmHg 91%
    03:00 +27°C° 0.1 mm 1 mps 739 mmHg 91%
    04:00 +27°C° 0.1 mm 1 mps 739 mmHg 90%
    05:00 +27°C° 0 mm 1 mps 740 mmHg 89%
    06:00 +25°C° 0 mm 0 mps 741 mmHg 87%
    07:00 +26°C° 0 mm 0 mps 741 mmHg 86%
    08:00 +29°C° 0 mm 0 mps 741 mmHg 72%
    09:00 +32°C° 0 mm 0 mps 742 mmHg 58%
    10:00 +36°C° 0 mm 1 mps 742 mmHg 45%
    11:00 +37°C° 0 mm 1 mps 741 mmHg 41%
    12:00 +40°C° 0 mm 2 mps 741 mmHg 38%
    13:00 +41°C° 0 mm 2 mps 740 mmHg 35%
    14:00 +38°C° 0.2 mm 2 mps 739 mmHg 49%
    15:00 +33°C° 0.2 mm 1 mps 739 mmHg 63%
    16:00 +30°C° 0.2 mm 1 mps 738 mmHg 77%
    17:00 +29°C° 0 mm 1 mps 739 mmHg 80%
    18:00 +29°C° 0 mm 1 mps 739 mmHg 83%
    19:00 +26°C° 0 mm 0 mps 739 mmHg 87%
    20:00 +26°C° 0 mm 0 mps 739 mmHg 85%
    21:00 +26°C° 0 mm 0 mps 740 mmHg 84%
    22:00 +26°C° 0 mm 0 mps 740 mmHg 82%
    23:00 +25°C° 0.4 mm 0 mps 740 mmHg 84%
    Show more